San Carlos, CA

9:28 AM PDT on June 21, 2018 (GMT -0700)
San Carlos

Weather History for KSQL - October, 2017

Change the Weather History Date:

Saturday, October 21, 2017

  Actual Average Record
Temperature  
Mean Temperature 58 °F -  
Max Temperature 68 °F 72 °F 86 °F (1964)
Min Temperature 48 °F 48 °F 35 °F (1949)
Degree Days  
Heating Degree Days 7    
Growing Degree Days 8 (Base 50)    
Moisture  
Dew Point 47 °F    
Average Humidity 72    
Maximum Humidity 88    
Minimum Humidity 37    
Precipitation  
Precipitation 0.00 in - - ()
Sea Level Pressure  
Sea Level Pressure 30.25 in    
Wind  
Wind Speed 4 mph (WNW)    
Max Wind Speed 12 mph    
Max Gust Speed -    
Visibility 10 miles    
Events      
Averages and records for this station are not official NWS values.
T = Trace of Precipitation, MM = Missing Value Source: NWS Daily Summary

Daily Weather History Graph

Daily Weather History Graph

Search for Another Location

Airport or City:

Astronomy

Oct. 21, 2017 Rise Set
Actual Time 7:23 AM PDT 6:23 PM PDT
Civil Twilight 6:56 AM PDT 6:49 PM PDT
Nautical Twilight 6:26 AM PDT 7:20 PM PDT
Astronomical Twilight 5:55 AM PDT 7:50 PM PDT
Moon 9:04 AM PDT 7:58 PM PDT
Length of Visible Light 11h 53m
Length of Day
11h 00m
Waxing Crescent, 4% of the Moon is Illuminated
Oct 21
Waxing Crescent
Oct 27
First Quarter
Nov 3
Full
Nov 10
Last Quarter
Nov 18
New

Hourly Weather History & Observations

Time (PDT) Temp. Dew Point Humidity Pressure Visibility Wind Dir Wind Speed Gust Speed Precip Events Conditions
12:15 AM 55.4 °F 46.4 °F 72% 30.20 in 10.0 mi West 5.8 mph - N/A   Clear
12:35 AM 55.4 °F 46.4 °F 72% 30.20 in 10.0 mi WNW 5.8 mph - N/A   Clear
12:55 AM 55.4 °F 46.4 °F 72% 30.20 in 10.0 mi WNW 6.9 mph - N/A   Clear
1:15 AM 53.6 °F 46.4 °F 77% 30.20 in 10.0 mi WNW 5.8 mph - N/A   Clear
1:35 AM 53.6 °F 46.4 °F 77% 30.19 in 10.0 mi WNW 4.6 mph - N/A   Clear
1:55 AM 53.6 °F 44.6 °F 72% 30.19 in 10.0 mi WSW 3.5 mph - N/A   Clear
2:15 AM 53.6 °F 44.6 °F 72% 30.19 in 10.0 mi WNW 4.6 mph - N/A   Clear
2:35 AM 53.6 °F 44.6 °F 72% 30.20 in 10.0 mi WNW 5.8 mph - N/A   Clear
2:55 AM 53.6 °F 44.6 °F 72% 30.21 in 10.0 mi WNW 4.6 mph - N/A   Clear
3:15 AM 53.6 °F 44.6 °F 72% 30.20 in 10.0 mi WNW 3.5 mph - N/A   Clear
3:35 AM 51.8 °F 44.6 °F 76% 30.20 in 10.0 mi NW 3.5 mph - N/A   Clear
3:55 AM 53.6 °F 44.6 °F 72% 30.20 in 10.0 mi WNW 3.5 mph - N/A   Clear
4:15 AM 51.8 °F 44.6 °F 76% 30.20 in 10.0 mi WNW 5.8 mph - N/A   Clear
4:35 AM 53.6 °F 44.6 °F 72% 30.20 in 10.0 mi Calm Calm - N/A   Clear
4:55 AM 51.8 °F 44.6 °F 76% 30.21 in 10.0 mi NW 3.5 mph - N/A   Clear
5:15 AM 51.8 °F 44.6 °F 76% 30.21 in 10.0 mi West 3.5 mph - N/A   Clear
5:35 AM 50.0 °F 42.8 °F 76% 30.22 in 10.0 mi Calm Calm - N/A   Clear
5:55 AM 50.0 °F 42.8 °F 76% 30.22 in 10.0 mi Calm Calm - N/A   Clear
6:15 AM 48.2 °F 42.8 °F 82% 30.23 in 10.0 mi Calm Calm - N/A   Clear
6:35 AM 50.0 °F 42.8 °F 76% 30.23 in 10.0 mi Calm Calm - N/A   Clear
6:47 AM 50.0 °F 42.8 °F 76% 30.23 in 10.0 mi Calm Calm - N/A   Partly Cloudy
6:55 AM 50.0 °F 42.8 °F 76% 30.24 in 10.0 mi Calm Calm - N/A   Clear
7:47 AM 50.0 °F 44.6 °F 82% 30.25 in 10.0 mi Calm Calm - N/A   Partly Cloudy
8:47 AM 53.6 °F 46.4 °F 77% 30.26 in 10.0 mi Calm Calm - N/A   Partly Cloudy
9:47 AM 57.2 °F 46.4 °F 67% 30.27 in 10.0 mi Calm Calm - N/A   Partly Cloudy
10:48 AM 59.0 °F 46.4 °F 63% 30.28 in 10.0 mi NE 4.6 mph - N/A   Partly Cloudy
12:47 PM 62.6 °F 42.8 °F 48% 30.28 in 10.0 mi NNE 6.9 mph - N/A   Partly Cloudy
2:00 PM 66.2 °F 41.0 °F 40% 30.25 in 10.0 mi NW 6.9 mph - N/A   Partly Cloudy
2:50 PM 68.0 °F 41.0 °F 37% 30.25 in 10.0 mi NW 5.8 mph - N/A   Clear
3:50 PM 68.0 °F 42.8 °F 40% 30.25 in 10.0 mi NW 8.1 mph - N/A   Clear
5:47 PM 66.2 °F 46.4 °F 49% 30.25 in 10.0 mi NW 11.5 mph - N/A   Clear
6:55 PM 62.6 °F 48.2 °F 59% 30.27 in 10.0 mi West 8.1 mph - N/A   Clear
7:55 PM 60.8 °F 50.0 °F 68% 30.29 in 10.0 mi West 6.9 mph - N/A   Clear
8:50 PM 59.0 °F 53.6 °F 82% 30.30 in 10.0 mi WNW 10.4 mph - N/A   Clear
9:15 PM 59.0 °F 53.6 °F 82% 30.30 in 10.0 mi NW 9.2 mph - N/A   Clear
9:35 PM 59.0 °F 53.6 °F 82% 30.31 in 10.0 mi NW 4.6 mph - N/A   Clear
9:55 PM 59.0 °F 53.6 °F 82% 30.31 in 10.0 mi Calm Calm - N/A   Clear
10:15 PM 59.0 °F 53.6 °F 82% 30.31 in 10.0 mi Calm Calm - N/A   Clear
10:35 PM 57.2 °F 53.6 °F 88% 30.31 in 10.0 mi Calm Calm - N/A   Clear
10:55 PM 57.2 °F 51.8 °F 82% 30.31 in 10.0 mi South 4.6 mph - N/A   Clear
11:15 PM 57.2 °F 51.8 °F 82% 30.31 in 10.0 mi SW 3.5 mph - N/A   Clear
11:35 PM 57.2 °F 51.8 °F 82% 30.31 in 10.0 mi Calm Calm - N/A   Clear
11:55 PM 55.4 °F 50.0 °F 82% 30.31 in 10.0 mi SSW 3.5 mph - N/A   Clear